sat.trackr.live / text

‹ back to catalog

STARLINK-35648

NORAD 66482 · 2025-262AC

PAYLOAD ACTIVE UNKNOWN

§ Identity

Operator
Country
US
Launch date
2025-11-15
Launch site
AFETR
Launch vehicle
Mass (kg)
RCS (m²)

Purposes: comms

External: N2YO · Heavens-Above · Gunter

§ Orbital elements

Epoch: 2026-09-20T01:21:03.466368Z

Period
94.27 min
Inclination
42.9999°
Eccentricity
0.0001034
Mean motion
15.27586598 rev/d
Perigee alt
482.3 km
Apogee alt
483.7 km
Semi-major
6,861.2 km
B*
4.4495e-4
RAAN
278.3630°
Arg perigee
258.9269°
Mean anomaly
101.1467°
Rev number
4,847

§ Raw data

STARLINK-356481 66482U 25262AC  26263.05629012  .00012004  00000+0  44495-3 0  99922 66482  42.9999 278.3630 0001034 258.9269 101.1467 15.27586598 48477

JSON: /api/v1/satellites/66482 · /tle

For live sub-satellite position, see the globe view (requires WebGL).

§ Visibility from observer

Set your observer location to see the next 7 days of passes ≥ 10°. The values pass through the URL so the page stays shareable.

No JS? Fill the form by hand. The geolocation button needs JavaScript.